| time (UTC) | temp F | wind direction | speed MPH | gust MPH | rain 1hr in | rain 24hr in | rain mn in | humidity % | barometer mb |
| 20260504050554 | 76 | 0 | 0.0 | 3.0 | 0.00 | 0.00 | 0.00 | 42 | 1007.1 |
| 20260504050125 | 76 | 0 | 0.0 | 3.0 | 0.00 | 0.00 | 0.00 | 42 | 1007.1 |
| 20260504045554 | 76 | 0 | 0.0 | 4.0 | 0.00 | 0.00 | 0.00 | 42 | 1007.1 |
| 20260504045054 | 76 | 0 | 0.0 | 4.0 | 0.00 | 0.00 | 0.00 | 42 | 1007.1 |
| 20260504044559 | 76 | 0 | 0.0 | 4.0 | 0.00 | 0.00 | 0.00 | 42 | 1007.1 |
| 20260504044055 | 77 | 0 | 0.0 | 6.0 | 0.00 | 0.00 | 0.00 | 42 | 1007.0 |
| 20260504043555 | 77 | 0 | 1.0 | 6.0 | 0.00 | 0.00 | 0.00 | 43 | 1007.1 |
| 20260504043101 | 77 | 0 | 0.0 | 3.0 | 0.00 | 0.00 | 0.00 | 43 | 1007.0 |
| 20260504042554 | 77 | 5 | 0.0 | 3.0 | 0.00 | 0.00 | 0.00 | 43 | 1007.1 |
| 20260504042054 | 77 | 0 | 0.0 | 3.0 | 0.00 | 0.00 | 0.00 | 43 | 1007.0 |
| 20260504041555 | 77 | 322 | 0.0 | 3.0 | 0.00 | 0.00 | 0.00 | 43 | 1007.0 |
| 20260504041054 | 78 | 0 | 0.0 | 3.0 | 0.00 | 0.00 | 0.00 | 43 | 1007.0 |
| 20260504040554 | 78 | 0 | 0.0 | 5.0 | 0.00 | 0.00 | 0.00 | 43 | 1006.9 |
| 20260504040104 | 78 | 0 | 0.0 | 5.0 | 0.00 | 0.00 | 0.00 | 42 | 1006.9 |
| 20260504035555 | 78 | 0 | 0.0 | 5.0 | 0.00 | 0.00 | 0.00 | 42 | 1006.9 |
| 20260504035056 | 79 | 0 | 0.0 | 5.0 | 0.00 | 0.00 | 0.00 | 42 | 1006.9 |
| 20260504034556 | 79 | 0 | 0.0 | 1.0 | 0.00 | 0.00 | 0.00 | 41 | 1006.8 |
| 20260504034057 | 79 | 0 | 0.0 | 2.0 | 0.00 | 0.00 | 0.00 | 40 | 1006.7 |
| 20260504033555 | 80 | 0 | 0.0 | 3.0 | 0.00 | 0.00 | 0.00 | 40 | 1006.6 |
| 20260504033058 | 80 | 339 | 0.0 | 3.0 | 0.00 | 0.00 | 0.00 | 39 | 1006.6 |
| 20260504032555 | 80 | 0 | 0.0 | 3.0 | 0.00 | 0.00 | 0.00 | 40 | 1006.5 |
| 20260504032058 | 80 | 0 | 0.0 | 3.0 | 0.00 | 0.00 | 0.00 | 39 | 1006.4 |
| 20260504031623 | 81 | 0 | 0.0 | 3.0 | 0.00 | 0.00 | 0.00 | 38 | 1006.4 |
| 20260504031054 | 81 | 315 | 0.0 | 3.0 | 0.00 | 0.00 | 0.00 | 38 | 1006.4 |
| 20260504030554 | 81 | 321 | 0.0 | 2.0 | 0.00 | 0.00 | 0.00 | 37 | 1006.3 |
| 20260504030053 | 81 | 0 | 0.0 | 2.0 | 0.00 | 0.00 | 0.00 | 37 | 1006.3 |
| 20260504025554 | 82 | 0 | 0.0 | 2.0 | 0.00 | 0.00 | 0.00 | 37 | 1006.3 |
| 20260504025057 | 83 | 0 | 0.0 | 4.0 | 0.00 | 0.00 | 0.00 | 36 | 1006.3 |
| 20260504024556 | 83 | 0 | 0.0 | 4.0 | 0.00 | 0.00 | 0.00 | 35 | 1006.2 |
| 20260504024055 | 83 | 327 | 1.0 | 4.0 | 0.00 | 0.00 | 0.00 | 35 | 1006.2 |
| 20260504023554 | 84 | 0 | 0.0 | 2.0 | 0.00 | 0.00 | 0.00 | 35 | 1006.1 |
| 20260504023058 | 84 | 0 | 0.0 | 3.0 | 0.00 | 0.00 | 0.00 | 35 | 1006.2 |
| 20260504022555 | 85 | 0 | 0.0 | 5.0 | 0.00 | 0.00 | 0.00 | 34 | 1006.2 |
| 20260504022056 | 85 | 0 | 1.0 | 5.0 | 0.00 | 0.00 | 0.00 | 34 | 1006.2 |
| 20260504021609 | 85 | 16 | 1.0 | 5.0 | 0.00 | 0.00 | 0.00 | 33 | 1006.2 |
| 20260504021054 | 86 | 10 | 1.0 | 5.0 | 0.00 | 0.00 | 0.00 | 32 | 1006.3 |
| 20260504020556 | 86 | 0 | 0.0 | 10.0 | 0.00 | 0.00 | 0.00 | 32 | 1006.2 |
| 20260504020100 | 87 | 295 | 1.0 | 10.0 | 0.00 | 0.00 | 0.00 | 31 | 1006.3 |
| 20260504015555 | 87 | 329 | 1.0 | 8.0 | 0.00 | 0.00 | 0.00 | 31 | 1006.2 |
| 20260504015055 | 87 | 299 | 0.0 | 12.0 | 0.00 | 0.00 | 0.00 | 31 | 1006.3 |
| 20260504014554 | 87 | 5 | 1.0 | 12.0 | 0.00 | 0.00 | 0.00 | 29 | 1006.3 |
| 20260504014054 | 88 | 344 | 1.0 | 9.0 | 0.00 | 0.00 | 0.00 | 29 | 1006.4 |
| 20260504013554 | 88 | 321 | 2.0 | 9.0 | 0.00 | 0.00 | 0.00 | 29 | 1006.3 |
| 20260504013105 | 88 | 352 | 2.0 | 9.0 | 0.00 | 0.00 | 0.00 | 29 | 1006.4 |
| 20260504012558 | 89 | 325 | 2.0 | 8.0 | 0.00 | 0.00 | 0.00 | 29 | 1006.4 |
| 20260504012056 | 89 | 350 | 1.0 | 6.0 | 0.00 | 0.00 | 0.00 | 28 | 1006.4 |
| 20260504011557 | 89 | 360 | 1.0 | 6.0 | 0.00 | 0.00 | 0.00 | 28 | 1006.4 |
| 20260504011054 | 89 | 350 | 0.0 | 5.0 | 0.00 | 0.00 | 0.00 | 27 | 1006.5 |
| 20260504010555 | 90 | 304 | 1.0 | 5.0 | 0.00 | 0.00 | 0.00 | 27 | 1006.5 |
| 20260504010101 | 90 | 336 | 1.0 | 5.0 | 0.00 | 0.00 | 0.00 | 28 | 1006.6 |
| 20260504005555 | 90 | 317 | 2.0 | 7.0 | 0.00 | 0.00 | 0.00 | 28 | 1006.6 |
| 20260504005055 | 90 | 349 | 2.0 | 7.0 | 0.00 | 0.00 | 0.00 | 28 | 1006.7 |
| 20260504004557 | 90 | 22 | 1.0 | 9.0 | 0.00 | 0.00 | 0.00 | 27 | 1006.7 |
| 20260504004055 | 90 | 0 | 1.0 | 9.0 | 0.00 | 0.00 | 0.00 | 27 | 1006.8 |
| 20260504003554 | 90 | 348 | 4.0 | 9.0 | 0.00 | 0.00 | 0.00 | 28 | 1006.8 |
| 20260504003055 | 91 | 21 | 2.0 | 9.0 | 0.00 | 0.00 | 0.00 | 27 | 1006.8 |
| 20260504002554 | 91 | 288 | 1.0 | 8.0 | 0.00 | 0.00 | 0.00 | 28 | 1006.8 |
| 20260504002055 | 91 | 0 | 2.0 | 9.0 | 0.00 | 0.00 | 0.00 | 28 | 1006.8 |
| 20260504001610 | 91 | 27 | 2.0 | 9.0 | 0.00 | 0.00 | 0.00 | 27 | 1006.8 |
| 20260504001056 | 91 | 316 | 2.0 | 6.0 | 0.00 | 0.00 | 0.00 | 26 | 1006.8 |
| 20260504000557 | 91 | 5 | 2.0 | 9.0 | 0.00 | 0.00 | 0.00 | 26 | 1006.6 |
| 20260504000106 | 91 | 190 | 2.0 | 9.0 | 0.00 | 0.00 | 0.00 | 25 | 1006.7 |
| 20260503235555 | 91 | 65 | 2.0 | 9.0 | 0.00 | 0.00 | 0.00 | 26 | 1006.6 |
| 20260503235056 | 92 | 73 | 1.0 | 8.0 | 0.00 | 0.00 | 0.00 | 26 | 1006.7 |
| 20260503234557 | 92 | 15 | 2.0 | 8.0 | 0.00 | 0.00 | 0.00 | 25 | 1006.8 |
| 20260503234055 | 92 | 317 | 1.0 | 8.0 | 0.00 | 0.00 | 0.00 | 26 | 1006.8 |
| 20260503233557 | 92 | 351 | 2.0 | 8.0 | 0.00 | 0.00 | 0.00 | 26 | 1006.9 |
| 20260503233101 | 91 | 325 | 2.0 | 8.0 | 0.00 | 0.00 | 0.00 | 26 | 1006.8 |
| 20260503232554 | 91 | 26 | 2.0 | 8.0 | 0.00 | 0.00 | 0.00 | 24 | 1007.0 |
| 20260503232054 | 91 | 284 | 1.0 | 8.0 | 0.00 | 0.00 | 0.00 | 24 | 1006.9 |
| 20260503231558 | 92 | 326 | 2.0 | 7.0 | 0.00 | 0.00 | 0.00 | 25 | 1007.0 |
| 20260503231056 | 92 | 352 | 2.0 | 7.0 | 0.00 | 0.00 | 0.00 | 25 | 1007.0 |
| 20260503230557 | 93 | 329 | 0.0 | 10.0 | 0.00 | 0.00 | 0.00 | 28 | 1007.1 |
| 20260503230058 | 91 | 26 | 1.0 | 10.0 | 0.00 | 0.00 | 0.00 | 27 | 1007.2 |
| 20260503225555 | 91 | 338 | 3.0 | 11.0 | 0.00 | 0.00 | 0.00 | 26 | 1007.5 |
| 20260503225059 | 91 | 352 | 2.0 | 11.0 | 0.00 | 0.00 | 0.00 | 25 | 1007.4 |
| 20260503224556 | 92 | 316 | 1.0 | 7.0 | 0.00 | 0.00 | 0.00 | 25 | 1007.5 |
| 20260503224055 | 92 | 315 | 1.0 | 7.0 | 0.00 | 0.00 | 0.00 | 28 | 1007.5 |
| 20260503223555 | 91 | 34 | 1.0 | 8.0 | 0.00 | 0.00 | 0.00 | 27 | 1007.5 |
| 20260503223057 | 90 | 321 | 2.0 | 8.0 | 0.00 | 0.00 | 0.00 | 26 | 1007.6 |
| 20260503222554 | 91 | 31 | 2.0 | 8.0 | 0.00 | 0.00 | 0.00 | 25 | 1007.6 |
| 20260503222054 | 92 | 310 | 1.0 | 8.0 | 0.00 | 0.00 | 0.00 | 28 | 1007.7 |
| 20260503221554 | 92 | 80 | 1.0 | 8.0 | 0.00 | 0.00 | 0.00 | 29 | 1007.8 |
| 20260503221057 | 92 | 355 | 2.0 | 9.0 | 0.00 | 0.00 | 0.00 | 30 | 1007.8 |
| 20260503220555 | 91 | 10 | 2.0 | 9.0 | 0.00 | 0.00 | 0.00 | 30 | 1007.9 |
| 20260503220105 | 90 | 51 | 4.0 | 9.0 | 0.00 | 0.00 | 0.00 | 29 | 1008.2 |
| 20260503215555 | 90 | 35 | 2.0 | 8.0 | 0.00 | 0.00 | 0.00 | 30 | 1008.2 |
| 20260503215054 | 90 | 52 | 3.0 | 8.0 | 0.00 | 0.00 | 0.00 | 29 | 1008.2 |
| 20260503214558 | 89 | 345 | 2.0 | 7.0 | 0.00 | 0.00 | 0.00 | 32 | 1008.3 |
| 20260503214059 | 91 | 5 | 1.0 | 7.0 | 0.00 | 0.00 | 0.00 | 32 | 1008.5 |
| 20260503213555 | 91 | 338 | 1.0 | 7.0 | 0.00 | 0.00 | 0.00 | 34 | 1008.6 |
| 20260503213128 | 90 | 0 | 3.0 | 9.0 | 0.00 | 0.00 | 0.00 | 33 | 1008.6 |
| 20260503212558 | 89 | 34 | 2.0 | 10.0 | 0.00 | 0.00 | 0.00 | 33 | 1008.7 |
| 20260503212058 | 89 | 317 | 2.0 | 10.0 | 0.00 | 0.00 | 0.00 | 36 | 1008.7 |
| 20260503211620 | 89 | 339 | 2.0 | 8.0 | 0.00 | 0.00 | 0.00 | 36 | 1008.7 |
| 20260503211054 | 88 | 25 | 2.0 | 8.0 | 0.00 | 0.00 | 0.00 | 34 | 1008.8 |
| 20260503210555 | 88 | 9 | 1.0 | 7.0 | 0.00 | 0.00 | 0.00 | 34 | 1008.8 |
| 20260503210056 | 88 | 289 | 3.0 | 10.0 | 0.00 | 0.00 | 0.00 | 37 | 1008.7 |
| 20260503205555 | 88 | 64 | 4.0 | 10.0 | 0.00 | 0.00 | 0.00 | 37 | 1008.9 |
| 20260503205056 | 88 | 26 | 2.0 | 8.0 | 0.00 | 0.00 | 0.00 | 35 | 1009.0 |
| 20260503204606 | 88 | 24 | 2.0 | 8.0 | 0.00 | 0.00 | 0.00 | 37 | 1009.0 |
| 20260503204054 | 87 | 31 | 2.0 | 8.0 | 0.00 | 0.00 | 0.00 | 38 | 1009.1 |
| 20260503203554 | 86 | 5 | 3.0 | 8.0 | 0.00 | 0.00 | 0.00 | 39 | 1009.2 |
| 20260503203104 | 87 | 9 | 2.0 | 9.0 | 0.00 | 0.00 | 0.00 | 37 | 1009.1 |
| 20260503202555 | 86 | 11 | 3.0 | 9.0 | 0.00 | 0.00 | 0.00 | 39 | 1009.1 |
| 20260503202056 | 86 | 0 | 2.0 | 7.0 | 0.00 | 0.00 | 0.00 | 40 | 1009.2 |
| 20260503201554 | 85 | 42 | 2.0 | 9.0 | 0.00 | 0.00 | 0.00 | 41 | 1009.3 |
| 20260503201057 | 86 | 63 | 2.0 | 9.0 | 0.00 | 0.00 | 0.00 | 41 | 1009.5 |
| 20260503200557 | 85 | 57 | 0.0 | 9.0 | 0.00 | 0.00 | 0.00 | 39 | 1009.6 |
| 20260503200059 | 85 | 20 | 2.0 | 5.0 | 0.00 | 0.00 | 0.00 | 41 | 1009.6 |
| 20260503195556 | 84 | 78 | 2.0 | 9.0 | 0.00 | 0.00 | 0.00 | 42 | 1009.6 |
| 20260503195057 | 83 | 94 | 3.0 | 9.0 | 0.00 | 0.00 | 0.00 | 42 | 1009.6 |
| 20260503194556 | 83 | 250 | 2.0 | 7.0 | 0.00 | 0.00 | 0.00 | 44 | 1009.7 |
| 20260503194058 | 83 | 310 | 2.0 | 7.0 | 0.00 | 0.00 | 0.00 | 44 | 1009.6 |
| 20260503193557 | 82 | 15 | 1.0 | 5.0 | 0.00 | 0.00 | 0.00 | 44 | 1009.7 |
| 20260503193056 | 82 | 32 | 2.0 | 5.0 | 0.00 | 0.00 | 0.00 | 46 | 1009.8 |
| 20260503192557 | 81 | 0 | 2.0 | 8.0 | 0.00 | 0.00 | 0.00 | 45 | 1009.9 |
| 20260503192056 | 81 | 352 | 1.0 | 8.0 | 0.00 | 0.00 | 0.00 | 46 | 1010.0 |
| 20260503191604 | 81 | 20 | 3.0 | 7.0 | 0.00 | 0.00 | 0.00 | 47 | 1010.0 |
| 20260503191057 | 81 | 32 | 2.0 | 9.0 | 0.00 | 0.00 | 0.00 | 46 | 1010.0 |
| 20260503190558 | 80 | 73 | 2.0 | 9.0 | 0.00 | 0.00 | 0.00 | 48 | 1010.2 |
| 20260503190056 | 80 | 14 | 0.0 | 7.0 | 0.00 | 0.00 | 0.00 | 46 | 1010.3 |
| 20260503185558 | 78 | 338 | 2.0 | 7.0 | 0.00 | 0.00 | 0.00 | 51 | 1010.4 |
| 20260503185057 | 78 | 346 | 2.0 | 6.0 | 0.00 | 0.00 | 0.00 | 49 | 1010.4 |
| 20260503184616 | 79 | 28 | 1.0 | 6.0 | 0.00 | 0.00 | 0.00 | 49 | 1010.6 |
| 20260503184057 | 78 | 46 | 2.0 | 6.0 | 0.00 | 0.00 | 0.00 | 50 | 1010.6 |
| 20260503183556 | 77 | 316 | 2.0 | 8.0 | 0.00 | 0.00 | 0.00 | 52 | 1010.6 |
| 20260503183104 | 77 | 281 | 1.0 | 9.0 | 0.00 | 0.00 | 0.00 | 52 | 1010.7 |
| 20260503182556 | 76 | 346 | 3.0 | 9.0 | 0.00 | 0.00 | 0.00 | 53 | 1010.7 |
| 20260503182056 | 76 | 317 | 2.0 | 6.0 | 0.00 | 0.00 | 0.00 | 55 | 1010.7 |
| 20260503181557 | 75 | 302 | 2.0 | 7.0 | 0.00 | 0.00 | 0.00 | 54 | 1010.8 |
| 20260503181057 | 76 | 316 | 2.0 | 7.0 | 0.00 | 0.00 | 0.00 | 56 | 1010.8 |
| 20260503180558 | 75 | 343 | 2.0 | 5.0 | 0.00 | 0.00 | 0.00 | 55 | 1010.9 |
| 20260503180057 | 75 | 69 | 1.0 | 7.0 | 0.00 | 0.00 | 0.00 | 56 | 1010.9 |
| 20260503175557 | 74 | 318 | 3.0 | 7.0 | 0.00 | 0.00 | 0.00 | 57 | 1010.9 |
| 20260503175057 | 74 | 0 | 1.0 | 8.0 | 0.00 | 0.00 | 0.00 | 57 | 1010.9 |
| 20260503174610 | 74 | 306 | 1.0 | 9.0 | 0.00 | 0.00 | 0.00 | 60 | 1011.0 |
| 20260503174057 | 73 | 336 | 2.0 | 9.0 | 0.00 | 0.00 | 0.00 | 60 | 1011.0 |
| 20260503173557 | 73 | 336 | 3.0 | 9.0 | 0.00 | 0.00 | 0.00 | 59 | 1011.0 |
| 20260503173132 | 72 | 306 | 2.0 | 8.0 | 0.00 | 0.00 | 0.00 | 62 | 1011.0 |
| 20260503172556 | 72 | 53 | 1.0 | 7.0 | 0.00 | 0.00 | 0.00 | 60 | 1011.0 |
| 20260503172100 | 71 | 352 | 3.0 | 7.0 | 0.00 | 0.00 | 0.00 | 62 | 1011.1 |
| 20260503171556 | 71 | 9 | 2.0 | 7.0 | 0.00 | 0.00 | 0.00 | 62 | 1011.1 |
| 20260503171057 | 71 | 5 | 1.0 | 7.0 | 0.00 | 0.00 | 0.00 | 64 | 1011.1 |
| 20260503170558 | 70 | 9 | 3.0 | 7.0 | 0.00 | 0.00 | 0.00 | 64 | 1011.2 |
| 20260503150557 | 59 | 5 | 2.0 | 5.0 | 0.00 | 0.00 | 0.00 | 88 | 1011.7 |
| 20260503150107 | 58 | 355 | 1.0 | 4.0 | 0.00 | 0.00 | 0.00 | 89 | 1011.6 |
| 20260503131053 | 54 | 0 | 0.0 | 1.0 | 0.00 | 0.00 | 0.00 | 94 | 1011.3 |
| 20260503130556 | 54 | 0 | 0.0 | 3.0 | 0.00 | 0.00 | 0.00 | 94 | 1011.3 |
| 20260503110557 | 55 | 0 | 0.0 | 1.0 | 0.00 | 0.00 | 0.00 | 94 | 1011.6 |
| 20260503100109 | 55 | 0 | 0.0 | 0.0 | 0.00 | 0.00 | 0.00 | 93 | 1011.7 |
| 20260503090106 | 56 | 0 | 0.0 | 1.0 | 0.00 | 0.00 | 0.00 | 91 | 1012.0 |
| 20260503081600 | 56 | 0 | 0.0 | 2.0 | 0.00 | 0.00 | 0.00 | 89 | 1012.1 |
| 20260503081057 | 57 | 302 | 0.0 | 2.0 | 0.00 | 0.00 | 0.00 | 89 | 1012.1 |
| 20260503080558 | 57 | 0 | 0.0 | 2.0 | 0.00 | 0.00 | 0.00 | 89 | 1012.1 |
| 20260503072555 | 58 | 0 | 0.0 | 0.0 | 0.00 | 0.00 | 0.00 | 87 | 1012.2 |
| 20260503072057 | 58 | 0 | 0.0 | 0.0 | 0.00 | 0.00 | 0.00 | 86 | 1012.1 |
| 20260503071611 | 58 | 0 | 0.0 | 0.0 | 0.00 | 0.00 | 0.00 | 86 | 1012.2 |
| 20260503071055 | 59 | 0 | 0.0 | 0.0 | 0.00 | 0.00 | 0.00 | 86 | 1012.2 |
| 20260503070556 | 58 | 0 | 0.0 | 0.0 | 0.00 | 0.00 | 0.00 | 86 | 1012.1 |
| 20260503070113 | 58 | 0 | 0.0 | 0.0 | 0.00 | 0.00 | 0.00 | 86 | 1012.2 |